Location: Acequia del Cap
(41.7000°N, 0.6167°E)
Time: 01:37:19
(UTC+00:00)

Cosmos 1125 Rocket - Pass Details

Date: 07 August 2020
Orbit: 757 x 781 km, 74.0° (Epoch: 22 September)

Event Time Altitude Azimuth Distance (km) Brightness Sun altitude
Exits shadow 04:18:54 - 201° (SSW) 3,069 6.1 -7.4°
Reaches altitude 10° 04:20:55 10° 203° (SSW) 2,286 5.5 -7.1°
Maximum altitude 04:26:06 79° 289° (WNW) 784 3.5 -6.2°
Drops below altitude 10° 04:31:23 10° 17° (NNE) 2,318 6.7 -5.4°
Sets 04:33:47 0° 19° (NNE) 3,252 7.5 -5.0°
